Date String (YYYY-MM-DD hh:mm:ss) UTC,Instrument flags,absolute air pressure of the measurement (hPa),sample flow rate (lpm),inlet stack bypass flow (lpm),air temperature of the measurement (°C),ambient temperature measured by the external sensor (°C),aerosol sample conditioner tube jacket temperature (°C),OPC LED temperature (°C),internal box temperature (°C),relative humidity of the measurement (%),span deviation,mass concentration of particles derived from Lorenz-Mie calculation of OPC scattering (μg/m³),mass concentration of particles derived from Lorenz-Mie calculation of OPC scattering (μg/m³),mass concentration of particles derived from Lorenz-Mie calculation of OPC scattering (μg/m³)
DateTimeUTC,F1_M11,P_M11,Q1_M11,Q2_M11,T1_M11,T2_M11,T3_M11,T4_M11,T5_M11,U1_M11,ZSPAN_M11,X0_M11,X2_M11,X1_M11
2024-02-20 03:00:00,SystemResetWarning,0828.0,5.00,000.00,024.1,023.4,000.0,032.6,026.0,09.7,0000.0,0009.21,0001.92,0001.34
2024-02-20 03:01:00,SystemResetWarning,0828.0,5.00,000.00,024.1,023.4,000.0,032.6,026.0,09.8,0000.0,0008.68,0001.92,0001.34
2024-02-20 03:02:00,SystemResetWarning,0828.0,5.01,000.00,024.1,023.4,000.0,032.6,026.0,09.6,0000.0,0008.67,0001.92,0001.35
2024-02-20 03:03:00,SystemResetWarning,0827.9,5.00,000.00,024.1,023.4,000.0,032.6,025.9,09.4,0000.0,0008.50,0001.89,0001.34
2024-02-20 03:04:00,SystemResetWarning,0827.8,5.00,000.00,024.1,023.4,000.0,032.6,025.9,09.5,0000.0,0008.72,0001.86,0001.33
2024-02-20 03:05:00,SystemResetWarning,0827.8,5.00,000.00,024.1,023.4,000.0,032.6,025.9,09.4,0000.0,0008.27,0001.85,0001.33
2024-02-20 03:06:00,SystemResetWarning,0827.8,5.00,000.00,024.1,023.4,000.0,032.6,025.9,09.3,0000.0,0009.47,0001.86,0001.31
2024-02-20 03:07:00,SystemResetWarning,0827.9,5.01,000.00,024.1,023.4,000.0,032.6,025.9,09.4,0000.0,0009.70,0001.90,0001.31
2024-02-20 03:08:00,SystemResetWarning,0827.9,5.00,000.00,024.1,023.4,000.0,032.6,026.0,09.4,0000.0,0009.75,0001.93,0001.32
2024-02-20 03:09:00,SystemResetWarning,0828.0,4.99,000.00,024.1,023.4,000.0,032.6,026.0,09.4,0000.0,0009.88,0001.98,0001.33
2024-02-20 03:10:00,SystemResetWarning,0828.0,4.99,000.00,024.1,023.4,000.0,032.6,026.0,09.5,0000.0,0010.21,0002.05,0001.34
2024-02-20 03:11:00,SystemResetWarning,0828.1,4.98,000.00,024.1,023.4,000.0,032.6,026.0,09.3,0000.0,0009.92,0002.09,0001.34
2024-02-20 03:12:00,SystemResetWarning,0828.0,5.01,000.00,024.1,023.4,000.0,032.6,025.9,08.8,0000.0,0009.43,0002.06,0001.33
2024-02-20 03:13:00,SystemResetWarning,0828.0,5.01,000.00,024.0,023.4,000.0,032.5,025.9,08.7,0000.0,0009.30,0001.99,0001.32
2024-02-20 03:14:00,SystemResetWarning,0828.1,5.00,000.00,024.0,023.4,000.0,032.5,025.9,08.7,0000.0,0009.40,0001.95,0001.28
2024-02-20 03:15:00,SystemResetWarning,0828.1,4.99,000.00,024.0,023.4,000.0,032.5,025.9,09.2,0000.0,0008.37,0001.89,0001.27
2024-02-20 03:16:00,SystemResetWarning,0828.1,4.99,000.00,024.0,023.4,000.0,032.5,025.9,09.1,0000.0,0008.59,0001.89,0001.27
2024-02-20 03:17:00,SystemResetWarning,0828.1,4.99,000.00,024.0,023.4,000.0,032.5,025.9,08.9,0000.0,0007.09,0001.86,0001.24
2024-02-20 03:18:00,SystemResetWarning,0828.1,5.01,000.00,024.0,023.4,000.0,032.5,025.9,09.5,0000.0,0007.10,0001.82,0001.23
2024-02-20 03:19:00,SystemResetWarning,0828.0,5.01,000.00,024.0,023.4,000.0,032.5,025.9,09.6,0000.0,0007.36,0001.81,0001.23
2024-02-20 03:20:00,SystemResetWarning,0827.8,5.01,000.00,024.0,023.4,000.0,032.5,025.9,09.5,0000.0,0007.32,0001.78,0001.23
2024-02-20 03:21:00,SystemResetWarning,0827.8,4.99,000.00,024.0,023.4,000.0,032.5,025.9,09.8,0000.0,0007.07,0001.71,0001.21
2024-02-20 03:22:00,SystemResetWarning,0827.8,4.99,000.00,024.0,023.3,000.0,032.5,025.9,10.1,0000.0,0006.47,0001.67,0001.19
2024-02-20 03:23:00,SystemResetWarning,0827.9,4.99,000.00,024.0,023.3,000.0,032.5,025.9,10.0,0000.0,0006.51,0001.69,0001.17
2024-02-20 03:24:00,SystemResetWarning,0828.1,5.00,000.00,024.0,023.3,000.0,032.5,025.9,09.8,0000.0,0007.33,0001.68,0001.15
2024-02-20 03:25:00,SystemResetWarning,0828.1,5.00,000.00,024.0,023.3,000.0,032.5,025.9,09.7,0000.0,0007.51,0001.67,0001.14
2024-02-20 03:26:00,SystemResetWarning,0828.1,5.00,000.00,024.0,023.3,000.0,032.5,025.9,09.8,0000.0,0007.64,0001.69,0001.13
2024-02-20 03:27:00,SystemResetWarning,0828.0,5.01,000.00,024.0,023.3,000.0,032.5,025.9,10.1,0000.0,0007.28,0001.67,0001.14
2024-02-20 03:28:00,SystemResetWarning,0828.0,5.01,000.00,024.0,023.3,000.0,032.5,025.9,10.4,0000.0,0007.85,0001.68,0001.15
2024-02-20 03:29:00,SystemResetWarning,0828.0,5.00,000.00,024.0,023.3,000.0,032.5,025.9,09.5,0000.0,0008.72,0001.67,0001.16
2024-02-20 03:30:00,SystemResetWarning,0828.1,5.00,000.00,024.0,023.3,000.0,032.5,025.9,09.4,0000.0,0008.61,0001.70,0001.18
2024-02-20 03:31:00,SystemResetWarning,0828.1,4.99,000.00,024.0,023.3,000.0,032.5,025.9,09.3,0000.0,0008.56,0001.72,0001.20
2024-02-20 03:32:00,SystemResetWarning,0828.1,5.00,000.00,024.0,023.3,000.0,032.5,025.9,09.2,0000.0,0008.19,0001.74,0001.23
2024-02-20 03:33:00,SystemResetWarning,0828.1,5.00,000.00,024.0,023.3,000.0,032.5,025.9,09.6,0000.0,0008.31,0001.79,0001.26
2024-02-20 03:34:00,SystemResetWarning,0828.1,5.01,000.00,024.0,023.3,000.0,032.5,025.9,09.7,0000.0,0008.32,0001.78,0001.29
2024-02-20 03:35:00,SystemResetWarning,0828.1,5.00,000.00,024.0,023.3,000.0,032.5,025.9,09.7,0000.0,0007.83,0001.84,0001.31
2024-02-20 03:36:00,SystemResetWarning,0828.1,5.00,000.00,024.0,023.3,000.0,032.5,025.9,09.7,0000.0,0007.63,0001.92,0001.35
2024-02-20 03:37:00,SystemResetWarning,0828.1,4.99,000.00,024.0,023.3,000.0,032.5,025.9,09.8,0000.0,0007.51,0001.94,0001.39
2024-02-20 03:38:00,SystemResetWarning,0828.0,5.00,000.00,024.0,023.3,000.0,032.5,025.9,09.9,0000.0,0007.31,0001.88,0001.36
2024-02-20 03:39:00,SystemResetWarning,0828.0,5.00,000.00,024.0,023.3,000.0,032.5,025.8,09.9,0000.0,0006.54,0001.85,0001.33
2024-02-20 03:40:00,SystemResetWarning,0827.9,5.01,000.00,024.0,023.3,000.0,032.5,025.9,10.1,0000.0,0004.55,0001.86,0001.31
2024-02-20 03:41:00,SystemResetWarning,0827.9,5.01,000.00,024.0,023.3,000.0,032.5,025.9,10.5,0000.0,0004.92,0001.82,0001.29
2024-02-20 03:42:00,SystemResetWarning,0827.9,4.99,000.00,024.0,023.3,000.0,032.5,025.8,10.4,0000.0,0006.73,0001.80,0001.26
2024-02-20 03:43:00,SystemResetWarning,0827.9,4.99,000.00,024.0,023.2,000.0,032.5,025.8,10.9,0000.0,0006.89,0001.80,0001.24
2024-02-20 03:44:00,SystemResetWarning,0828.0,4.99,000.00,024.0,023.2,000.0,032.5,025.8,11.0,0000.0,0006.72,0001.76,0001.21
2024-02-20 03:45:00,SystemResetWarning,0828.0,4.99,000.00,023.9,023.2,000.0,032.5,025.8,10.9,0000.0,0006.80,0001.79,0001.20
2024-02-20 03:46:00,SystemResetWarning,0828.0,5.01,000.00,023.9,023.2,000.0,032.5,025.8,11.0,0000.0,0007.06,0001.81,0001.19
2024-02-20 03:47:00,SystemResetWarning,0827.9,5.01,000.00,023.9,023.2,000.0,032.5,025.8,10.8,0000.0,0007.09,0001.76,0001.18
2024-02-20 03:48:00,SystemResetWarning,0827.8,5.00,000.00,023.9,023.2,000.0,032.5,025.8,10.9,0000.0,0008.27,0001.79,0001.17
2024-02-20 03:49:00,SystemResetWarning,0827.8,4.99,000.00,023.9,023.2,000.0,032.5,025.8,11.3,0000.0,0008.50,0001.88,0001.24
2024-02-20 03:50:00,SystemResetWarning,0827.9,4.99,000.00,023.9,023.2,000.0,032.5,025.8,11.5,0000.0,0009.10,0002.04,0001.33
2024-02-20 03:51:00,SystemResetWarning,0827.8,5.00,000.00,023.9,023.2,000.0,032.5,025.8,11.2,0000.0,0009.73,0002.15,0001.42
2024-02-20 03:52:00,SystemResetWarning,0828.0,5.01,000.00,023.9,023.2,000.0,032.5,025.7,11.1,0000.0,0010.18,0002.32,0001.54
2024-02-20 03:53:00,SystemResetWarning,0827.8,5.01,000.00,023.9,023.2,000.0,032.4,025.7,11.4,0000.0,0009.49,0002.43,0001.64
2024-02-20 03:54:00,SystemResetWarning,0827.7,5.00,000.00,023.9,023.2,000.0,032.4,025.7,11.6,0000.0,0009.51,0002.57,0001.74
2024-02-20 03:55:00,SystemResetWarning,0827.9,5.00,000.00,023.9,023.2,000.0,032.4,025.7,11.6,0000.0,0009.89,0002.68,0001.84
2024-02-20 03:56:00,SystemResetWarning,0828.1,4.99,000.00,023.9,023.2,000.0,032.4,025.7,11.6,0000.0,0010.34,0002.73,0001.93
2024-02-20 03:57:00,SystemResetWarning,0828.1,5.00,000.00,023.9,023.2,000.0,032.4,025.7,11.5,0000.0,0010.53,0002.85,0002.02
2024-02-20 03:58:00,SystemResetWarning,0828.2,5.01,000.00,023.9,023.1,000.0,032.4,025.7,11.5,0000.0,0010.67,0002.96,0002.13
2024-02-20 03:59:00,SystemResetWarning,0828.2,5.01,000.00,023.9,023.1,000.0,032.4,025.7,11.7,0000.0,0009.94,0003.05,0002.23
